Location: Newark
(34.3481°N, 134.0494°E)
Time: 20:38:13
(UTC+00:00)

S-56A Canister/Altair - Visible Passes

Search period start: 25 January 2020 00:00
Search period end: 04 February 2020 00:00
Orbit: 634 x 2498 km, 38.9° (Epoch: 25 January)

Date Brightness Start Highest point End Pass type
(mag) Time Alt. Az. Time Alt. Az. Time Alt. Az.
25 Jan 9.8 08:45:47 10° SSW 08:52:45 25° SSE 08:57:57 10° E visible
25 Jan 8.0 10:49:35 10° WSW 10:56:13 66° SSW 10:56:13 66° SSW visible
26 Jan 7.9 10:16:17 10° SW 10:24:17 67° SSE 10:25:29 54° ESE visible
26 Jan 10.6 12:22:24 10° W 12:22:56 12° W 12:22:56 12° W visible
27 Jan 8.4 09:42:55 10° SW 09:51:32 61° SSE 09:54:44 29° E visible
27 Jan 9.8 11:49:09 10° W 11:52:11 25° W 11:52:11 25° W visible
28 Jan 8.7 09:09:32 10° SW 09:18:44 56° SSE 09:23:59 15° E visible
28 Jan 8.7 11:15:47 10° W 11:21:24 48° WNW 11:21:24 48° WNW visible
29 Jan 7.9 10:42:20 10° W 10:50:18 72° NNW 10:50:37 70° N visible
30 Jan 8.2 10:08:48 10° WSW 10:17:33 78° NNW 10:19:49 43° ENE visible
30 Jan 10.3 12:15:43 10° WNW 12:17:15 17° WNW 12:17:15 17° WNW visible
31 Jan 8.4 09:35:11 10° WSW 09:44:44 85° NNW 09:48:59 23° ENE visible
31 Jan 9.5 11:42:24 10° W 11:46:25 31° WNW 11:46:25 31° WNW visible
01 Feb 8.6 09:01:32 10° WSW 09:11:52 89° SSE 09:18:09 12° ENE visible
01 Feb 8.5 11:08:58 10° W 11:15:35 52° NW 11:15:35 52° NW visible
02 Feb 8.2 10:35:25 10° W 10:43:47 60° N 10:44:45 54° NNE visible
02 Feb 10.8 12:42:00 10° WNW 12:42:11 11° WNW 12:42:11 11° WNW visible
03 Feb 8.5 10:01:45 10° W 10:10:56 63° N 10:13:54 34° ENE visible
03 Feb 10.1 12:08:47 10° WNW 12:11:20 22° WNW 12:11:20 22° WNW visible
